{"data":{"norad_id":54135,"intl_designator":"2022-138Y","name":"ONEWEB-0517","alt_names":[],"object_type":"PAYLOAD","status":"ACTIVE","operator":null,"country":"UK","launch_date":"2022-10-22","launch_site_code":"SRILR","launch_vehicle":null,"mission":null,"orbit_class":"UNKNOWN","rcs_meters":null,"size_class":null,"mass_kg":null,"dimensions":null,"purposes":["comms"],"wikipedia_slug":null,"has_3d_model":false,"image_url":null,"decayed_at":null,"tle_current":{"epoch":"2026-05-25T03:42:02.500704Z","epoch_age_seconds":55684,"freshness":"FRESH","line1":"1 54135U 22138Y   26145.15419561  .00000078  00000+0  16369-3 0  9996","line2":"2 54135  87.9155 309.5557 0002095  90.8905 269.2468 13.19726323173797","mean_motion":13.19726323,"eccentricity":0.0002095,"inclination_deg":87.9155,"raan_deg":309.5557,"arg_perigee_deg":90.8905,"mean_anomaly_deg":269.2468,"bstar":0.00016369,"rev_number":17379,"period_min":109.11353171517,"perigee_km":1184.1808593102,"apogee_km":1187.3501344564,"semimajor_km":7563.9024968833,"source":"CELESTRAK","updated_at":"2026-05-25T13:38:22.589374Z"}}}